Pine River, MN

2:36 PM CDT on July 24, 2016 (GMT -0500)
Pine River Regional

Weather History for KPWC - March, 2013

Change the Weather History Date:

Friday, March 15, 2013

  Actual Average Record
Temperature  
Mean Temperature 22 °F -  
Max Temperature 30 °F 35 °F 71 °F (2015)
Min Temperature 15 °F 14 °F -7 °F (1997)
Degree Days  
Heating Degree Days 42    
Moisture  
Dew Point 19 °F    
Average Humidity 80    
Maximum Humidity 93    
Minimum Humidity 51    
Precipitation  
Precipitation 0.02 in - - ()
Sea Level Pressure  
Sea Level Pressure 29.98 in    
Wind  
Wind Speed 7 mph (NNE)    
Max Wind Speed 13 mph    
Max Gust Speed 18 mph    
Visibility 6 miles    
Events Snow    
Averages and records for this station are not official NWS values.
T = Trace of Precipitation, MM = Missing Value Source: NWS Daily Summary

Daily Weather History Graph

Daily Weather History Graph

Search for Another Location

Airport or City:

Trip Planner

Search our weather history database for the weather conditions in past years. The results will help you decide how hot, cold, wet, or windy it might be!

Date:

Astronomy

Mar. 15, 2013 Rise Set
Actual Time 7:29 AM CDT 7:23 PM CDT
Civil Twilight 6:59 AM CDT 7:53 PM CDT
Nautical Twilight 6:24 AM CDT 8:29 PM CDT
Astronomical Twilight 5:48 AM CDT 9:05 PM CDT
Moon 9:04 AM CDT (3/15) 11:56 PM CDT (3/15)
Length of Visible Light 12h 54m
Length of Day
11h 53m
Waxing Crescent, 15% of the Moon is Illuminated
Mar 15
Waxing Crescent
Mar 19
First Quarter
Mar 27
Full
Apr 2
Last Quarter
Apr 10
New

Hourly Weather History & Observations

Time (CDT) Temp. Windchill Dew Point Humidity Pressure Visibility Wind Dir Wind Speed Gust Speed Precip Events Conditions
12:12 AM 30.2 °F 25.4 °F 24.8 °F 80% 30.02 in 10.0 mi NNW 4.6 mph - N/A   Clear
12:33 AM 28.4 °F 22.2 °F 24.8 °F 86% 30.02 in 10.0 mi NNW 5.8 mph - N/A   Scattered Clouds
12:53 AM 28.4 °F 22.2 °F 24.8 °F 86% 30.01 in 10.0 mi North 5.8 mph - N/A   Mostly Cloudy
1:13 AM 28.4 °F 22.2 °F 24.8 °F 86% 30.01 in 10.0 mi North 5.8 mph - N/A   Overcast
1:33 AM 28.4 °F 22.2 °F 24.8 °F 86% 30.00 in 10.0 mi North 5.8 mph - N/A   Overcast
1:52 AM 28.4 °F 22.2 °F 24.8 °F 86% 30.00 in 10.0 mi North 5.8 mph - N/A   Mostly Cloudy
2:12 AM 28.4 °F 21.2 °F 24.8 °F 86% 30.00 in 10.0 mi North 6.9 mph - N/A   Mostly Cloudy
2:33 AM 28.4 °F 21.2 °F 24.8 °F 86% 30.00 in 10.0 mi North 6.9 mph - N/A   Overcast
2:53 AM 28.4 °F 22.2 °F 24.8 °F 86% 30.00 in 10.0 mi NNW 5.8 mph - N/A   Overcast
3:13 AM 28.4 °F 23.3 °F 24.8 °F 86% 30.01 in 10.0 mi NW 4.6 mph - N/A   Overcast
3:33 AM 28.4 °F 20.4 °F 24.8 °F 86% 30.01 in 4.0 mi NW 8.1 mph - N/A Snow Light Snow
3:53 AM 28.4 °F 23.3 °F 24.8 °F 86% 30.02 in 2.5 mi NW 4.6 mph - N/A Snow Light Snow
4:13 AM 28.4 °F 22.2 °F 24.8 °F 86% 30.02 in 1.8 mi NW 5.8 mph - N/A Snow Light Snow
4:32 AM 26.6 °F - 24.8 °F 93% 30.02 in 1.5 mi Calm Calm - N/A Snow Light Snow
4:53 AM 26.6 °F 21.2 °F 24.8 °F 93% 30.01 in 1.5 mi NNW 4.6 mph - N/A   Overcast
5:13 AM 26.6 °F 20.0 °F 24.8 °F 93% 30.01 in 2.0 mi North 5.8 mph - N/A Snow Light Snow
5:33 AM 26.6 °F 18.2 °F 24.8 °F 93% 30.00 in 2.0 mi North 8.1 mph - N/A Snow Light Snow
5:53 AM 26.6 °F 17.5 °F 24.8 °F 93% 30.00 in 2.5 mi North 9.2 mph - N/A Snow Light Snow
6:13 AM 26.6 °F 16.8 °F 24.8 °F 93% 30.00 in 3.0 mi North 10.4 mph - N/A Snow Light Snow
6:31 AM 26.6 °F 16.8 °F 23.0 °F 86% 30.00 in 3.0 mi North 10.4 mph - N/A Snow Light Snow
6:53 AM 26.6 °F 18.2 °F 23.0 °F 86% 30.00 in 2.5 mi NNE 8.1 mph - N/A Snow Light Snow
7:13 AM 26.6 °F 20.0 °F 23.0 °F 86% 29.99 in 3.0 mi NNE 5.8 mph - 0.01 in Snow Light Snow
7:33 AM 26.6 °F 19.1 °F 23.0 °F 86% 30.00 in 3.0 mi North 6.9 mph - 0.01 in Snow Light Snow
7:53 AM 26.6 °F 18.2 °F 23.0 °F 86% 30.00 in 1.5 mi North 8.1 mph - N/A Snow Light Snow
8:11 AM 24.8 °F 16.1 °F 21.2 °F 86% 30.01 in 2.0 mi NNE 8.1 mph - N/A Snow Light Snow
8:33 AM 24.8 °F 17.9 °F 19.4 °F 80% 30.01 in 2.5 mi NNE 5.8 mph - N/A Snow Light Snow
8:51 AM 24.8 °F 16.9 °F 19.4 °F 80% 30.01 in 2.0 mi NE 6.9 mph - N/A Snow Light Snow
9:12 AM 24.8 °F 16.1 °F 19.4 °F 80% 30.01 in 1.8 mi NNE 8.1 mph - N/A Snow Light Snow
9:33 AM 24.8 °F 16.9 °F 19.4 °F 80% 30.01 in 2.5 mi NE 6.9 mph - N/A Snow Light Snow
9:53 AM 24.8 °F 16.9 °F 19.4 °F 80% 30.00 in 4.0 mi NE 6.9 mph - N/A Snow Light Snow
10:13 AM 26.6 °F 18.2 °F 19.4 °F 74% 29.99 in 10.0 mi NE 8.1 mph - N/A   Overcast
10:32 AM 26.6 °F 16.8 °F 17.6 °F 69% 29.98 in 10.0 mi ENE 10.4 mph - N/A Snow Light Snow
10:53 AM 26.6 °F 17.5 °F 17.6 °F 69% 29.99 in 10.0 mi NE 9.2 mph - N/A   Overcast
11:13 AM 26.6 °F 19.1 °F 17.6 °F 69% 30.00 in 10.0 mi ENE 6.9 mph - N/A   Mostly Cloudy
11:33 AM 26.6 °F 18.2 °F 17.6 °F 69% 30.01 in 7.0 mi NNE 8.1 mph - N/A Snow Light Snow
11:53 AM 26.6 °F 19.1 °F 17.6 °F 69% 30.01 in 5.0 mi NE 6.9 mph - N/A Snow Light Snow
12:13 PM 26.6 °F 17.5 °F 17.6 °F 69% 30.00 in 10.0 mi NNE 9.2 mph - N/A   Overcast
12:33 PM 26.6 °F 17.5 °F 17.6 °F 69% 29.98 in 10.0 mi ENE 9.2 mph 17.3 mph N/A   Overcast
12:53 PM 26.6 °F 17.5 °F 17.6 °F 69% 29.98 in 10.0 mi NE 9.2 mph - N/A   Overcast
1:13 PM 26.6 °F 16.8 °F 15.8 °F 64% 29.99 in 10.0 mi ENE 10.4 mph - N/A   Overcast
1:33 PM 26.6 °F 16.8 °F 15.8 °F 64% 29.98 in 10.0 mi ENE 10.4 mph - N/A   Overcast
1:52 PM 26.6 °F 17.5 °F 14.0 °F 59% 29.97 in 10.0 mi East 9.2 mph - N/A   Overcast
2:13 PM 26.6 °F 17.5 °F 12.2 °F 55% 29.97 in 10.0 mi ENE 9.2 mph - N/A   Overcast
2:32 PM 26.6 °F 19.1 °F 12.2 °F 55% 29.96 in 10.0 mi East 6.9 mph - N/A   Overcast
2:53 PM 26.6 °F 19.1 °F 12.2 °F 55% 29.95 in 10.0 mi NNE 6.9 mph - N/A   Overcast
3:13 PM 26.6 °F 21.2 °F 10.4 °F 51% 29.94 in 10.0 mi ENE 4.6 mph - N/A   Overcast
3:33 PM 26.6 °F 19.1 °F 10.4 °F 51% 29.93 in 10.0 mi ENE 6.9 mph - N/A   Overcast
3:53 PM 26.6 °F 18.2 °F 10.4 °F 51% 29.92 in 10.0 mi NE 8.1 mph - N/A   Mostly Cloudy
4:13 PM 26.6 °F 17.5 °F 12.2 °F 55% 29.92 in 10.0 mi ENE 9.2 mph - N/A   Scattered Clouds
4:33 PM 26.6 °F 20.0 °F 12.2 °F 55% 29.93 in 10.0 mi NE 5.8 mph - N/A   Scattered Clouds
4:53 PM 26.6 °F 16.8 °F 14.0 °F 59% 29.96 in 4.0 mi ENE 10.4 mph - N/A Snow Light Snow
5:12 PM 24.8 °F 16.9 °F 17.6 °F 74% 29.96 in 0.8 mi ENE 6.9 mph - N/A Snow Light Snow
5:33 PM 23.0 °F 13.9 °F 19.4 °F 86% 29.95 in 0.5 mi ENE 8.1 mph - N/A Snow Snow
5:52 PM 21.2 °F 14.9 °F 19.4 °F 93% 29.95 in 0.2 mi NE 4.6 mph - N/A Snow Snow
6:13 PM 21.2 °F 11.7 °F 19.4 °F 93% 29.95 in 0.5 mi NE 8.1 mph - N/A Snow Snow
6:33 PM 21.2 °F 13.6 °F 19.4 °F 93% 29.94 in 1.0 mi NE 5.8 mph - N/A Snow Light Snow
6:53 PM 21.2 °F 13.6 °F 19.4 °F 93% 29.93 in 1.8 mi NNE 5.8 mph - N/A Snow Light Snow
7:13 PM 21.2 °F 12.6 °F 17.6 °F 86% 29.95 in 2.5 mi NNE 6.9 mph - N/A Snow Light Snow
7:33 PM 21.2 °F 11.7 °F 17.6 °F 86% 29.94 in 10.0 mi NE 8.1 mph - N/A Snow Light Snow
7:53 PM 21.2 °F 14.9 °F 17.6 °F 86% 29.95 in 7.0 mi NNE 4.6 mph - N/A Snow Light Snow
8:12 PM 21.2 °F 13.6 °F 17.6 °F 86% 29.96 in 5.0 mi NNE 5.8 mph - 0.01 in Snow Light Snow
8:33 PM 19.4 °F 9.5 °F 17.6 °F 93% 29.95 in 2.0 mi NNE 8.1 mph - 0.01 in Snow Light Snow
8:52 PM 19.4 °F 12.8 °F 17.6 °F 93% 29.96 in 1.8 mi NNE 4.6 mph - N/A Snow Light Snow
9:11 PM 19.4 °F 10.4 °F 17.6 °F 93% 29.96 in 4.0 mi NNE 6.9 mph - N/A Snow Light Snow
9:52 PM 19.4 °F 7.9 °F 15.8 °F 86% 29.98 in 1.5 mi NNE 10.4 mph - N/A Snow Light Snow
10:13 PM 17.6 °F 5.7 °F 15.8 °F 93% 29.99 in 2.0 mi North 10.4 mph - N/A Snow Light Snow
10:33 PM 17.6 °F 5.0 °F 15.8 °F 93% 30.00 in 1.5 mi NNE 11.5 mph - N/A Snow Light Snow
10:52 PM 17.6 °F 7.3 °F 15.8 °F 93% 30.00 in 1.5 mi NNE 8.1 mph - N/A Snow Light Snow
11:12 PM 17.6 °F 6.4 °F 14.0 °F 86% 30.01 in 1.8 mi North 9.2 mph - N/A Snow Light Snow
11:32 PM 15.8 °F 2.1 °F 12.2 °F 86% 30.01 in 2.5 mi NNE 12.7 mph 18.4 mph N/A Snow Light Snow
11:52 PM 15.8 °F 4.2 °F 12.2 °F 86% 30.01 in 2.5 mi North 9.2 mph - N/A Snow Light Snow